Time,TemperatureF,DewpointF,PressureIn,WindDirection,WindDirectionDegrees,WindSpeedMPH,WindSpeedGustMPH,Humidity,HourlyPrecipIn,Conditions,Clouds,dailyrainin,SoftwareType,DateUTC
2013-04-20 00:01:00,-999.0,-99.9,32.01,North,-999,-999.0,-999.0,-999,-99.99,,,0.00,weatherlink.com 1.10,2013-04-20 04:01:00,
2013-04-20 00:16:00,-999.0,-99.9,32.01,North,-999,-999.0,-999.0,-999,-99.99,,,0.00,weatherlink.com 1.10,2013-04-20 04:16:00,
2013-04-20 00:32:00,-999.0,-99.9,32.01,North,-999,-999.0,-999.0,-999,-99.99,,,0.00,weatherlink.com 1.10,2013-04-20 04:32:00,
2013-04-20 00:47:00,-999.0,-99.9,32.01,North,-999,-999.0,-999.0,-999,-99.99,,,0.00,weatherlink.com 1.10,2013-04-20 04:47:00,
2013-04-20 01:02:00,-999.0,-99.9,32.01,North,-999,-999.0,-999.0,-999,-99.99,,,0.00,weatherlink.com 1.10,2013-04-20 05:02:00,
2013-04-20 01:17:00,-999.0,-99.9,32.01,North,-999,-999.0,-999.0,-999,-99.99,,,0.00,weatherlink.com 1.10,2013-04-20 05:17:00,
2013-04-20 01:32:00,-999.0,-99.9,32.01,North,-999,-999.0,-999.0,-999,-99.99,,,0.00,weatherlink.com 1.10,2013-04-20 05:32:00,
2013-04-20 01:47:00,-999.0,-99.9,32.01,North,-999,-999.0,-999.0,-999,-99.99,,,0.00,weatherlink.com 1.10,2013-04-20 05:47:00,
2013-04-20 02:02:00,-999.0,-99.9,32.01,North,-999,-999.0,-999.0,-999,-99.99,,,0.00,weatherlink.com 1.10,2013-04-20 06:02:00,
2013-04-20 02:17:00,-999.0,-99.9,32.01,North,-999,-999.0,-999.0,-999,-99.99,,,0.00,weatherlink.com 1.10,2013-04-20 06:17:00,
2013-04-20 02:32:00,-999.0,-99.9,32.01,North,-999,-999.0,-999.0,-999,-99.99,,,0.00,weatherlink.com 1.10,2013-04-20 06:32:00,
2013-04-20 02:47:00,-999.0,-99.9,32.01,North,-999,-999.0,-999.0,-999,-99.99,,,0.00,weatherlink.com 1.10,2013-04-20 06:47:00,
2013-04-20 03:02:00,-999.0,-99.9,32.01,North,-999,-999.0,-999.0,-999,-99.99,,,0.00,weatherlink.com 1.10,2013-04-20 07:02:00,
2013-04-20 03:17:00,-999.0,-99.9,32.01,North,-999,-999.0,-999.0,-999,-99.99,,,0.00,weatherlink.com 1.10,2013-04-20 07:17:00,
2013-04-20 03:32:00,-999.0,-99.9,32.01,North,-999,-999.0,-999.0,-999,-99.99,,,0.00,weatherlink.com 1.10,2013-04-20 07:32:00,
2013-04-20 03:47:00,-999.0,-99.9,32.01,North,-999,-999.0,-999.0,-999,-99.99,,,0.00,weatherlink.com 1.10,2013-04-20 07:47:00,
2013-04-20 04:03:00,-999.0,-99.9,32.01,North,-999,-999.0,-999.0,-999,-99.99,,,0.00,weatherlink.com 1.10,2013-04-20 08:03:00,
2013-04-20 04:18:00,-999.0,-99.9,32.01,North,-999,-999.0,-999.0,-999,-99.99,,,0.00,weatherlink.com 1.10,2013-04-20 08:18:00,
2013-04-20 04:33:00,-999.0,-99.9,32.01,North,-999,-999.0,-999.0,-999,-99.99,,,0.00,weatherlink.com 1.10,2013-04-20 08:33:00,
2013-04-20 04:48:00,-999.0,-99.9,32.01,North,-999,-999.0,-999.0,-999,-99.99,,,0.00,weatherlink.com 1.10,2013-04-20 08:48:00,
2013-04-20 05:03:00,-999.0,-99.9,32.01,North,-999,-999.0,-999.0,-999,-99.99,,,0.00,weatherlink.com 1.10,2013-04-20 09:03:00,
2013-04-20 05:18:00,-999.0,-99.9,32.01,North,-999,-999.0,-999.0,-999,-99.99,,,0.00,weatherlink.com 1.10,2013-04-20 09:18:00,
2013-04-20 05:33:00,-999.0,-99.9,32.01,North,-999,-999.0,-999.0,-999,-99.99,,,0.00,weatherlink.com 1.10,2013-04-20 09:33:00,
2013-04-20 05:48:00,-999.0,-99.9,32.01,North,-999,-999.0,-999.0,-999,-99.99,,,0.00,weatherlink.com 1.10,2013-04-20 09:48:00,
2013-04-20 06:03:00,-999.0,-99.9,32.01,North,-999,-999.0,-999.0,-999,-99.99,,,0.00,weatherlink.com 1.10,2013-04-20 10:03:00,
2013-04-20 06:18:00,-999.0,-99.9,32.01,North,-999,-999.0,-999.0,-999,-99.99,,,0.00,weatherlink.com 1.10,2013-04-20 10:18:00,
2013-04-20 06:33:00,-999.0,-99.9,32.01,North,-999,-999.0,-999.0,-999,-99.99,,,0.00,weatherlink.com 1.10,2013-04-20 10:33:00,
2013-04-20 06:48:00,-999.0,-99.9,32.01,North,-999,-999.0,-999.0,-999,-99.99,,,0.00,weatherlink.com 1.10,2013-04-20 10:48:00,
2013-04-20 07:03:00,-999.0,-99.9,32.01,North,-999,-999.0,-999.0,-999,-99.99,,,0.00,weatherlink.com 1.10,2013-04-20 11:03:00,
2013-04-20 07:18:00,-999.0,-99.9,32.01,North,-999,-999.0,-999.0,-999,-99.99,,,0.00,weatherlink.com 1.10,2013-04-20 11:18:00,
2013-04-20 07:34:00,-999.0,-99.9,32.01,North,-999,-999.0,-999.0,-999,-99.99,,,0.00,weatherlink.com 1.10,2013-04-20 11:34:00,
2013-04-20 07:49:00,-999.0,-99.9,32.01,North,-999,-999.0,-999.0,-999,-99.99,,,0.00,weatherlink.com 1.10,2013-04-20 11:49:00,
2013-04-20 08:04:00,-999.0,-99.9,32.01,North,-999,-999.0,-999.0,-999,-99.99,,,0.00,weatherlink.com 1.10,2013-04-20 12:04:00,
2013-04-20 08:19:00,-999.0,-99.9,32.01,North,-999,-999.0,-999.0,-999,-99.99,,,0.00,weatherlink.com 1.10,2013-04-20 12:19:00,
2013-04-20 08:34:00,-999.0,-99.9,32.01,North,-999,-999.0,-999.0,-999,-99.99,,,0.00,weatherlink.com 1.10,2013-04-20 12:34:00,
2013-04-20 08:49:00,-999.0,-99.9,32.01,North,-999,-999.0,-999.0,-999,-99.99,,,0.00,weatherlink.com 1.10,2013-04-20 12:49:00,
2013-04-20 09:04:00,-999.0,-99.9,32.01,North,-999,-999.0,-999.0,-999,-99.99,,,0.00,weatherlink.com 1.10,2013-04-20 13:04:00,
2013-04-20 09:19:00,-999.0,-99.9,32.01,North,-999,-999.0,-999.0,-999,-99.99,,,0.00,weatherlink.com 1.10,2013-04-20 13:19:00,
2013-04-20 09:34:00,-999.0,-99.9,32.01,North,-999,-999.0,-999.0,-999,-99.99,,,0.00,weatherlink.com 1.10,2013-04-20 13:34:00,
2013-04-20 09:49:00,-999.0,-99.9,32.01,North,-999,-999.0,-999.0,-999,-99.99,,,0.00,weatherlink.com 1.10,2013-04-20 13:49:00,
2013-04-20 10:04:00,-999.0,-99.9,32.01,North,-999,-999.0,-999.0,-999,-99.99,,,0.00,weatherlink.com 1.10,2013-04-20 14:04:00,
2013-04-20 10:19:00,-999.0,-99.9,32.01,North,-999,-999.0,-999.0,-999,-99.99,,,0.00,weatherlink.com 1.10,2013-04-20 14:19:00,
2013-04-20 10:34:00,-999.0,-99.9,27.60,North,-999,-999.0,-999.0,-999,-99.99,,,0.00,weatherlink.com 1.10,2013-04-20 14:34:00,
2013-04-20 10:50:00,42.9,31.0,31.43,WNW,298,4.0,-999.0,63,-99.99,,,0.00,weatherlink.com 1.10,2013-04-20 14:50:00,
2013-04-20 11:05:00,43.6,31.0,31.43,NW,325,3.0,-999.0,61,-99.99,,,0.00,weatherlink.com 1.10,2013-04-20 15:05:00,
2013-04-20 11:20:00,44.3,30.0,31.43,NW,325,5.0,-999.0,58,-99.99,,,0.00,weatherlink.com 1.10,2013-04-20 15:20:00,
2013-04-20 11:35:00,46.4,32.0,31.43,WNW,302,10.0,-999.0,57,-99.99,,,0.00,weatherlink.com 1.10,2013-04-20 15:35:00,
2013-04-20 11:50:00,46.4,32.0,30.00,NNE,16,7.0,-999.0,57,-99.99,,,0.00,weatherlink.com 1.10,2013-04-20 15:50:00,
2013-04-20 12:05:00,45.5,31.0,30.00,WNW,296,6.0,-999.0,57,-99.99,,,0.00,weatherlink.com 1.10,2013-04-20 16:05:00,
2013-04-20 12:20:00,47.2,31.0,30.00,WNW,289,5.0,-999.0,54,-99.99,,,0.00,weatherlink.com 1.10,2013-04-20 16:20:00,
2013-04-20 12:35:00,46.2,30.0,31.31,West,266,1.0,-999.0,54,-99.99,,,0.00,weatherlink.com 1.10,2013-04-20 16:35:00,
2013-04-20 12:50:00,48.2,31.0,31.31,NW,320,6.0,-999.0,51,-99.99,,,0.00,weatherlink.com 1.10,2013-04-20 16:50:00,
2013-04-20 13:05:00,46.5,30.0,31.31,NNW,342,12.0,-999.0,53,-99.99,,,0.00,weatherlink.com 1.10,2013-04-20 17:05:00,
2013-04-20 13:20:00,46.9,30.0,31.31,WSW,256,4.0,-999.0,52,-99.99,,,0.00,weatherlink.com 1.10,2013-04-20 17:20:00,
2013-04-20 13:35:00,48.8,31.0,31.31,WSW,255,1.0,-999.0,50,-99.99,,,0.00,weatherlink.com 1.10,2013-04-20 17:35:00,
2013-04-20 13:50:00,48.8,32.0,31.31,NNW,335,15.0,-999.0,52,-99.99,,,0.00,weatherlink.com 1.10,2013-04-20 17:50:00,
2013-04-20 14:05:00,49.0,31.0,31.31,NW,320,6.0,-999.0,50,-99.99,,,0.00,weatherlink.com 1.10,2013-04-20 18:05:00,
2013-04-20 14:20:00,49.6,31.0,31.31,SW,224,1.0,-999.0,49,-99.99,,,0.00,weatherlink.com 1.10,2013-04-20 18:20:00,
2013-04-20 14:35:00,50.3,31.0,31.31,SW,231,3.0,-999.0,48,-99.99,,,0.00,weatherlink.com 1.10,2013-04-20 18:35:00,
2013-04-20 14:50:00,49.6,30.0,31.31,NW,320,6.0,-999.0,47,-99.99,,,0.00,weatherlink.com 1.10,2013-04-20 18:50:00,
2013-04-20 15:05:00,50.3,31.0,31.31,WNW,282,7.0,-999.0,47,-99.99,,,0.00,weatherlink.com 1.10,2013-04-20 19:05:00,
2013-04-20 15:20:00,50.1,32.0,31.31,NW,315,5.0,-999.0,50,-99.99,,,0.00,weatherlink.com 1.10,2013-04-20 19:20:00,
2013-04-20 15:35:00,50.0,30.0,31.31,West,281,3.0,-999.0,47,-99.99,,,0.00,weatherlink.com 1.10,2013-04-20 19:35:00,
2013-04-20 15:50:00,50.2,32.0,31.31,NNW,346,7.0,-999.0,49,-99.99,,,0.00,weatherlink.com 1.10,2013-04-20 19:50:00,
2013-04-20 16:05:00,50.6,30.0,31.31,South,189,0.0,-999.0,46,-99.99,,,0.00,weatherlink.com 1.10,2013-04-20 20:05:00,
2013-04-20 16:20:00,51.1,31.0,31.31,NW,325,4.0,-999.0,46,-99.99,,,0.00,weatherlink.com 1.10,2013-04-20 20:20:00,
2013-04-20 16:35:00,50.4,28.0,31.31,WNW,299,7.0,-999.0,43,-99.99,,,0.00,weatherlink.com 1.10,2013-04-20 20:35:00,
2013-04-20 16:50:00,50.9,29.0,31.31,NNE,29,7.0,-999.0,44,-99.99,,,0.00,weatherlink.com 1.10,2013-04-20 20:50:00,
2013-04-20 17:05:00,50.8,30.0,31.31,NW,304,7.0,-999.0,45,-99.99,,,0.00,weatherlink.com 1.10,2013-04-20 21:05:00,
2013-04-20 17:20:00,50.8,29.0,31.41,NW,320,10.0,-999.0,44,-99.99,,,0.00,weatherlink.com 1.10,2013-04-20 21:20:00,
2013-04-20 17:35:00,50.9,29.0,31.41,NNW,334,5.0,-999.0,43,-99.99,,,0.00,weatherlink.com 1.10,2013-04-20 21:35:00,
2013-04-20 17:50:00,51.1,29.0,31.36,North,358,15.0,-999.0,42,-99.99,,,0.00,weatherlink.com 1.10,2013-04-20 21:50:00,
2013-04-20 18:05:00,51.3,29.0,31.33,NNW,333,7.0,-999.0,42,-99.99,,,0.00,weatherlink.com 1.10,2013-04-20 22:05:00,
2013-04-20 18:20:00,51.5,29.0,31.30,North,360,2.0,-999.0,43,-99.99,,,0.00,weatherlink.com 1.10,2013-04-20 22:20:00,
2013-04-20 18:35:00,51.4,29.0,28.68,NNW,331,8.0,-999.0,43,-99.99,,,0.00,weatherlink.com 1.10,2013-04-20 22:35:00,
2013-04-20 18:50:00,50.9,29.0,29.99,West,281,6.0,-999.0,44,-99.99,,,0.00,weatherlink.com 1.10,2013-04-20 22:50:00,
2013-04-20 19:05:00,50.3,30.0,31.30,North,349,4.0,-999.0,46,-99.99,,,0.00,weatherlink.com 1.10,2013-04-20 23:05:00,
2013-04-20 19:20:00,49.5,30.0,31.30,ENE,74,7.0,-999.0,47,-99.99,,,0.00,weatherlink.com 1.10,2013-04-20 23:20:00,
2013-04-20 19:35:00,49.2,30.0,31.30,NNW,339,5.0,-999.0,48,-99.99,,,0.00,weatherlink.com 1.10,2013-04-20 23:35:00,
2013-04-20 19:50:00,49.7,30.0,31.30,WNW,284,3.0,-999.0,47,-99.99,,,0.00,weatherlink.com 1.10,2013-04-20 23:50:00,
2013-04-20 20:05:00,49.5,30.0,31.30,North,4,2.0,-999.0,47,-99.99,,,0.00,weatherlink.com 1.10,2013-04-21 00:05:00,
2013-04-20 20:20:00,49.2,30.0,31.30,West,272,4.0,-999.0,48,-99.99,,,0.00,weatherlink.com 1.10,2013-04-21 00:20:00,
2013-04-20 20:35:00,-999.0,-99.9,31.30,North,-999,-999.0,-999.0,-999,-99.99,,,0.00,weatherlink.com 1.10,2013-04-21 00:35:00,
2013-04-20 20:50:00,-999.0,-99.9,31.30,North,-999,-999.0,-999.0,-999,-99.99,,,0.00,weatherlink.com 1.10,2013-04-21 00:50:00,
2013-04-20 21:05:00,-999.0,-99.9,31.30,North,-999,-999.0,-999.0,-999,-99.99,,,0.00,weatherlink.com 1.10,2013-04-21 01:05:00,
2013-04-20 21:20:00,-999.0,-99.9,31.30,North,-999,-999.0,-999.0,-999,-99.99,,,0.00,weatherlink.com 1.10,2013-04-21 01:20:00,
2013-04-20 21:35:00,-999.0,-99.9,31.30,North,-999,-999.0,-999.0,-999,-99.99,,,0.00,weatherlink.com 1.10,2013-04-21 01:35:00,
2013-04-20 21:50:00,-999.0,-99.9,31.30,North,-999,-999.0,-999.0,-999,-99.99,,,0.00,weatherlink.com 1.10,2013-04-21 01:50:00,
2013-04-20 22:06:00,-999.0,-99.9,31.30,North,-999,-999.0,-999.0,-999,-99.99,,,0.00,weatherlink.com 1.10,2013-04-21 02:06:00,
2013-04-20 22:21:00,-999.0,-99.9,31.30,North,-999,-999.0,-999.0,-999,-99.99,,,0.00,weatherlink.com 1.10,2013-04-21 02:21:00,
2013-04-20 22:36:00,-999.0,-99.9,31.30,North,-999,-999.0,-999.0,-999,-99.99,,,0.00,weatherlink.com 1.10,2013-04-21 02:36:00,
2013-04-20 22:51:00,-999.0,-99.9,31.30,North,-999,-999.0,-999.0,-999,-99.99,,,0.00,weatherlink.com 1.10,2013-04-21 02:51:00,
2013-04-20 23:06:00,-999.0,-99.9,31.30,North,-999,-999.0,-999.0,-999,-99.99,,,0.00,weatherlink.com 1.10,2013-04-21 03:06:00,
2013-04-20 23:21:00,-999.0,-99.9,31.30,North,-999,-999.0,-999.0,-999,-99.99,,,0.00,weatherlink.com 1.10,2013-04-21 03:21:00,
2013-04-20 23:36:00,-999.0,-99.9,31.30,North,-999,-999.0,-999.0,-999,-99.99,,,0.00,weatherlink.com 1.10,2013-04-21 03:36:00,
2013-04-20 23:51:00,-999.0,-99.9,31.30,North,-999,-999.0,-999.0,-999,-99.99,,,0.00,weatherlink.com 1.10,2013-04-21 03:51:00,